Location: Twentynine Palms Airport
(34.1316°N, 115.9458°W)
Time: 22:52:08
(UTC-08:00)

Amateur Radio Satellites - All Passes

Search period start: 28 February 2015 22:22
Search period end: 01 March 2015 22:22
Location: Twentynine Palms Airport, 34.1316°N, 115.9458°W

Satellite Date Start Highest point End Downlink Frequencies (MHz)
Time Altitude Azimuth
UNISAT 6 28 Feb 22:27:08 22:31:26 84° 283° (WNW) 22:35:47 437.425
VERMONT LUNAR 28 Feb 22:30:38 22:34:06 67° 21° (NNE) 22:37:33 437.305
UKube-1 28 Feb 22:32:59 22:34:07 11° 269° (W) 22:34:56 .
HUMSAT D 28 Feb 22:38:51 22:41:32 16° 267° (W) 22:44:00 437.325/437.525
NANOSAT C BR1 28 Feb 22:39:31 22:43:45 71° 100° (E) 22:47:56 145.865
SPROUT 28 Feb 22:42:17 22:46:09 33° 73° (ENE) 22:50:05 437.525
TISAT 1 28 Feb 22:53:25 22:57:25 41° 74° (ENE) 23:01:28 437.305
TIGRISAT 28 Feb 22:53:30 22:57:32 41° 286° (WNW) 23:01:35 435.000
DANDE 28 Feb 22:56:48 23:02:49 28° 95° (E) 23:07:56 436.750
50 SAT 28 Feb 22:58:15 23:00:00 12° 268° (W) 23:01:32 437.505
ANTELSAT 28 Feb 23:06:12 23:09:56 29° 288° (WNW) 23:13:38 437.575/2403.000
QB50P1 28 Feb 23:11:59 23:16:02 44° 286° (WNW) 23:20:01 145.935-145.965
SWISSCUBE 28 Feb 23:13:32 23:14:54 11° 66° (ENE) 23:16:32 437.505
QB50P2 28 Feb 23:15:09 23:19:07 40° 286° (WNW) 23:23:03 145.880/145.840
BEESAT 28 Feb 23:21:50 23:23:52 13° 67° (ENE) 23:26:10 436.000
DUCHIFAT 1 28 Feb 23:32:26 23:36:00 26° 288° (WNW) 23:39:28 145.980
BUGSAT 1 28 Feb 23:33:19 23:37:06 33° 287° (WNW) 23:40:46 437.445
CUSAT 1 28 Feb 23:37:44 23:44:47 77° 98° (E) 23:50:09 437.405
CUBEBUG 1 28 Feb 23:40:46 23:42:29 12° 270° (W) 23:43:54 437.445
ITUPSAT 1 28 Feb 23:46:04 23:49:47 24° 70° (ENE) 23:53:38 437.325
GONETS M04 28 Feb 23:46:21 23:51:45 17° 295° (WNW) 23:56:33
POLYITAN 1 28 Feb 23:51:02 23:53:43 16° 291° (WNW) 23:56:15 437.675
POPSAT HIP 1 28 Feb 23:52:39 23:55:18 16° 291° (WNW) 23:57:45 437.405
PHONESAT 2.4 28 Feb 23:57:57 00:01:31 58° 209° (SSW) 00:05:02 2401.200-2431.200
Oscar 19 28 Feb 23:58:09 23:59:58 12° 90° (E) 00:02:08 437.125/150
VERMONT LUNAR 01 Mar 00:09:07 00:11:49 21° 215° (SW) 00:14:28 437.305
RS-15 01 Mar 00:10:45 00:21:22 53° 307° (NW) 00:32:02 29.354- 29.394
SPROUT 01 Mar 00:19:26 00:22:21 17° 267° (W) 00:25:08 437.525
SO-50 01 Mar 00:21:05 00:23:42 16° 109° (ESE) 00:26:35 436.795
TISAT 1 01 Mar 00:31:15 00:33:28 13° 268° (W) 00:35:29 437.305
DANDE 01 Mar 00:39:12 00:46:09 41° 281° (W) 00:51:33 436.750
SWISSCUBE 01 Mar 00:47:33 00:52:17 65° 259° (W) 00:57:03 437.505
BEESAT 01 Mar 00:56:37 01:01:18 56° 259° (W) 01:06:01 436.000
ITUPSAT 1 01 Mar 01:23:22 01:27:33 30° 264° (W) 01:31:43 437.325
BEESAT 2 01 Mar 01:24:58 01:26:49 13° 47° (NE) 01:28:49 435.950
CUSAT 1 01 Mar 01:24:58 01:27:47 13° 287° (WNW) 01:29:57 437.405
ITAMSAT 1 01 Mar 01:29:03 01:33:45 34° 97° (E) 01:38:29 435.822/435.867
Oscar 19 01 Mar 01:34:46 01:39:50 62° 285° (WNW) 01:44:52 437.125/150
KKS-1 01 Mar 01:39:10 01:43:39 76° 76° (ENE) 01:48:08 437.445
JUGNU 01 Mar 01:47:05 01:50:01 14° 167° (SSE) 01:53:02 437.505
STARS 01 Mar 01:50:04 01:54:27 63° 76° (ENE) 01:58:50 437.465
YUBILEINY 01 Mar 01:52:35 01:59:08 24° 69° (ENE) 02:06:01 435.215
SO-50 01 Mar 01:59:30 02:03:53 45° 303° (WNW) 02:08:26 436.795
HORYU 2 01 Mar 02:03:00 02:04:10 11° 90° (E) 02:05:39 437.375
Gurwin Techsat 1B 01 Mar 02:29:14 02:34:34 79° 285° (WNW) 02:39:53 435.225
RS-15 01 Mar 02:31:09 02:37:21 16° 336° (NNW) 02:43:11 29.354- 29.394
AO-7 01 Mar 02:33:11 02:38:38 20° 92° (E) 02:44:32 29.400- 29.500
BEESAT 3 01 Mar 02:37:50 02:41:59 89° 246° (WSW) 02:46:02 437.485
MOZHAYETS 4 01 Mar 02:39:30 02:41:37 14° 68° (ENE) 02:44:00
AIST 2 01 Mar 02:48:23 02:52:18 35° 56° (NE) 02:56:11 435.215
M-CUBED/EXP-1 PRIME 01 Mar 02:58:32 03:01:42 48° 71° (ENE) 03:04:58 437.505
BEESAT 2 01 Mar 03:01:20 03:05:24 54° 244° (WSW) 03:09:22 435.950
AUBIESAT-1 01 Mar 03:02:06 03:05:16 47° 71° (ENE) 03:08:30 437.475
ITAMSAT 1 01 Mar 03:08:55 03:13:06 24° 291° (WNW) 03:17:09 435.822/435.867
SRMSAT 01 Mar 03:33:13 03:36:28 15° 169° (SSE) 03:39:46 437.500
JUGNU 01 Mar 03:34:11 03:38:22 20° 177° (S) 03:42:35 437.505
HORYU 2 01 Mar 03:36:53 03:41:13 52° 286° (WNW) 03:45:32 437.375
YUBILEINY 01 Mar 03:48:00 03:56:43 65° 267° (W) 04:05:23 435.215
JAS-2 01 Mar 03:56:19 04:03:46 64° 100° (E) 04:11:34 435.910
MOZHAYETS 4 01 Mar 04:14:05 04:18:30 48° 261° (W) 04:22:55
AO-7 01 Mar 04:23:57 04:32:14 73° 289° (WNW) 04:40:26 29.400- 29.500
PRISM 01 Mar 04:26:29 04:28:30 14° 68° (ENE) 04:30:42 437.425
AIST 2 01 Mar 04:27:51 04:30:40 17° 250° (WSW) 04:33:17 435.215
CUBESAT XI-V 01 Mar 04:32:29 04:35:24 17° 69° (ENE) 04:38:29 437.345
Cubesat XI-IV 01 Mar 04:44:11 04:46:03 12° 89° (E) 04:48:18 437.490
CUTE-I 01 Mar 04:52:49 04:55:43 15° 91° (E) 04:58:54 437.470
RS-15 01 Mar 04:52:56 04:56:40 12° 13° (NNE) 05:00:49 29.354- 29.394
SRMSAT 01 Mar 05:20:44 05:25:00 20° 178° (S) 05:29:15 437.500
JUGNU 01 Mar 05:22:48 05:26:45 18° 187° (S) 05:30:41 437.505
PCSat 01 Mar 05:23:25 05:28:13 32° 56° (NE) 05:33:03 145.827
STRAND 1 01 Mar 05:31:47 05:36:41 48° 73° (ENE) 05:41:39 437.568
JAS-2 01 Mar 05:42:31 05:48:22 25° 293° (WNW) 05:54:11 435.910
AIST 1 01 Mar 05:44:11 05:44:50 10° 87° (E) 05:45:48
PRISM 01 Mar 05:59:49 06:03:41 39° 261° (W) 06:07:36 437.425
CUBESAT XI-V 01 Mar 06:08:09 06:12:34 40° 263° (W) 06:16:59 437.345
AO-7 01 Mar 06:19:59 06:23:49 13° 306° (NW) 06:27:07 29.400- 29.500
Cubesat XI-IV 01 Mar 06:21:23 06:26:44 67° 286° (WNW) 06:32:02 437.490
CUTE-I 01 Mar 06:30:58 06:36:13 55° 287° (WNW) 06:41:24 437.470
RS-15 01 Mar 07:04:01 07:14:06 36° 45° (NE) 07:24:50 29.354- 29.394
PCSat 01 Mar 07:06:54 07:11:34 29° 251° (WSW) 07:16:08 145.827
SRMSAT 01 Mar 07:09:40 07:13:32 18° 188° (S) 07:17:20 437.500
STRAND 1 01 Mar 07:12:56 07:16:12 16° 268° (W) 07:19:15 437.568
JUGNU 01 Mar 07:13:59 07:15:07 10° 196° (SSW) 07:16:06 437.505
AIST 1 01 Mar 07:17:53 07:22:05 49° 280° (W) 07:26:21
CUTE 1.7 + AOD 2 01 Mar 07:24:04 07:24:55 11° 90° (E) 07:26:03 437.475
HO-68 01 Mar 07:30:49 07:36:20 25° 94° (E) 07:42:06 435.675
BRITE-PL 01 Mar 07:37:16 07:41:07 28° 95° (E) 07:44:50 437.365/2234.400
ISS 01 Mar 07:48:44 07:51:17 22° 130° (SE) 07:53:54 145.825
GOMX 1 01 Mar 07:50:32 07:54:05 25° 94° (E) 07:57:35 467.674
GONETS M04 01 Mar 08:00:17 08:08:00 35° 74° (ENE) 08:15:56
AAUSAT CUBESAT 2 01 Mar 08:11:48 08:15:13 25° 95° (E) 08:18:43 437.432
COMPASS 1 01 Mar 08:12:53 08:16:34 30° 96° (E) 08:20:18 437.405
ANTELSAT 01 Mar 08:27:27 08:28:59 12° 68° (ENE) 08:30:46 437.575/2403.000
DOVE 4 01 Mar 08:32:29 08:36:40 53° 99° (E) 08:40:42 437.250
SEEDS 01 Mar 08:37:27 08:41:41 77° 101° (E) 08:45:55 437.485
CANX-2 01 Mar 08:38:07 08:42:22 77° 283° (WNW) 08:46:37 2200.000
O/OREOS (USA 219) 01 Mar 08:43:12 08:47:34 50° 106° (ESE) 08:52:01 437.305
UKube-1 01 Mar 08:47:02 08:48:30 12° 91° (E) 08:50:13 .
DUCHIFAT 1 01 Mar 08:48:47 08:49:19 10° 67° (ENE) 08:50:08 145.980
UWE-3 01 Mar 08:50:11 08:52:59 18° 93° (E) 08:55:56 435.000/436.395/437.385
CINEMA 3 01 Mar 08:52:17 08:56:17 45° 99° (E) 09:00:17 145.822/145.860
CUTE 1.7 + AOD 2 01 Mar 08:57:05 09:01:12 49° 285° (WNW) 09:05:19 437.475
POLYITAN 1 01 Mar 09:04:46 09:07:33 17° 70° (ENE) 09:10:28 437.675
POPSAT HIP 1 01 Mar 09:06:04 09:08:52 18° 70° (ENE) 09:11:49 437.405
RS-15 01 Mar 09:15:57 09:27:22 66° 246° (WSW) 09:39:11 29.354- 29.394
BRITE-PL 01 Mar 09:16:10 09:19:31 20° 291° (WNW) 09:22:36 437.365/2234.400
HO-68 01 Mar 09:17:27 09:24:25 54° 290° (WNW) 09:31:20 435.675
UNISAT 6 01 Mar 09:22:30 09:26:49 53° 75° (ENE) 09:31:06 437.425
CUBEBUG 2 01 Mar 09:23:21 09:27:27 58° 100° (E) 09:31:34 437.445
ISS 01 Mar 09:24:50 09:27:38 26° 324° (NW) 09:30:25 145.825
Oscar 11 01 Mar 09:27:33 09:31:54 85° 283° (WNW) 09:36:14 145.826/435.025
DELFI C3 01 Mar 09:28:25 09:32:31 78° 101° (ESE) 09:36:36 145.870
NANOSAT C BR1 01 Mar 09:28:47 09:32:35 32° 73° (ENE) 09:36:26 145.865
GOMX 1 01 Mar 09:28:49 09:32:09 21° 290° (WNW) 09:35:16 467.674
AISAT 01 Mar 09:45:51 09:49:28 25° 95° (E) 09:53:09 437.250
AAUSAT CUBESAT 2 01 Mar 09:47:33 09:50:47 21° 289° (WNW) 09:53:55 437.432
TIGRISAT 01 Mar 09:48:14 09:52:41 77° 258° (WSW) 09:57:04 435.000
DX 1 01 Mar 09:49:06 09:53:29 75° 102° (ESE) 09:57:49 434.975-435.025
COMPASS 1 01 Mar 09:49:09 09:52:07 18° 289° (WNW) 09:54:55 437.405
VELOX 1 01 Mar 09:55:52 09:59:49 31° 97° (E) 10:03:47 145.980
CUBEBUG 1 01 Mar 09:56:17 09:58:03 13° 91° (E) 10:00:04 437.445
GONETS M04 01 Mar 09:56:51 10:05:00 44° 270° (W) 10:13:03
QB50P1 01 Mar 10:00:40 10:04:57 82° 79° (ENE) 10:09:16 145.935-145.965
ANTELSAT 01 Mar 10:01:06 10:05:27 52° 261° (W) 10:09:43 437.575/2403.000
QB50P2 01 Mar 10:03:57 10:08:15 89° 257° (WSW) 10:12:34 145.880/145.840
ESTCUBE 1 01 Mar 10:06:10 10:09:24 19° 94° (E) 10:12:45 437.505/2401.250
FUNcube-1 01 Mar 10:09:11 10:13:15 56° 284° (WNW) 10:17:20 145.935
ZACube-1 01 Mar 10:09:52 10:13:56 54° 284° (WNW) 10:18:00 437.345
DOVE 4 01 Mar 10:13:40 10:14:00 10° 293° (WNW) 10:14:04 437.250
BUGSAT 1 01 Mar 10:19:01 10:23:17 82° 258° (WSW) 10:27:35 437.445
DUCHIFAT 1 01 Mar 10:20:31 10:24:44 58° 260° (W) 10:28:57 145.980
UKube-1 01 Mar 10:20:48 10:24:59 47° 286° (WNW) 10:29:08 .
CUSAT 1 01 Mar 10:22:52 10:24:45 18° 77° (ENE) 10:26:44 437.405
O/OREOS (USA 219) 01 Mar 10:24:56 10:27:22 14° 303° (WNW) 10:29:38 437.305
HUMSAT D 01 Mar 10:25:03 10:29:10 73° 283° (WNW) 10:33:16 437.325/437.525
UWE-3 01 Mar 10:26:02 10:29:36 28° 287° (WNW) 10:33:08 435.000/436.395/437.385
CINEMA 3 01 Mar 10:31:38 10:33:10 11° 292° (WNW) 10:34:27 145.822/145.860
SO-50 01 Mar 10:34:14 10:39:07 58° 58° (ENE) 10:43:57 436.795
50 SAT 01 Mar 10:37:55 10:41:51 72° 283° (WNW) 10:45:48 437.505
POLYITAN 1 01 Mar 10:39:22 10:43:16 33° 263° (W) 10:47:08 437.675
POPSAT HIP 1 01 Mar 10:40:41 10:44:34 32° 263° (W) 10:48:25 437.405
UNISAT 6 01 Mar 11:02:48 11:03:59 11° 269° (W) 11:04:51 437.425
NANOSAT C BR1 01 Mar 11:05:39 11:08:33 17° 267° (W) 11:11:18 145.865
Oscar 19 01 Mar 11:11:44 11:14:00 13° 66° (ENE) 11:16:33 437.125/150
AISAT 01 Mar 11:22:25 11:26:01 24° 289° (WNW) 11:29:29 437.250
DANDE 01 Mar 11:26:51 11:29:20 36° 264° (W) 11:31:47 436.750
CUBEBUG 1 01 Mar 11:30:30 11:34:44 45° 286° (WNW) 11:38:55 437.445
VELOX 1 01 Mar 11:32:59 11:36:12 19° 291° (WNW) 11:39:17 145.980
RS-15 01 Mar 11:36:09 11:38:24 10° 260° (W) 11:39:08 29.354- 29.394
ESTCUBE 1 01 Mar 11:42:17 11:46:22 32° 288° (WNW) 11:50:22 437.505/2401.250
SPROUT 01 Mar 12:08:17 12:12:34 72° 283° (WNW) 12:16:48 437.525
Gurwin Techsat 1B 01 Mar 12:10:31 12:12:24 12° 65° (ENE) 12:14:36 435.225
SO-50 01 Mar 12:16:41 12:19:15 14° 251° (WSW) 12:21:32 436.795
TISAT 1 01 Mar 12:17:25 12:21:36 61° 284° (WNW) 12:25:44 437.305
ITAMSAT 1 01 Mar 12:43:24 12:48:05 36° 71° (ENE) 12:52:53 435.822/435.867
Oscar 19 01 Mar 12:47:48 12:52:54 63° 260° (W) 12:58:00 437.125/150
SWISSCUBE 01 Mar 12:51:50 12:56:25 43° 99° (E) 13:00:59 437.505
BEESAT 01 Mar 13:00:40 13:05:20 49° 100° (E) 13:09:59 436.000
ITUPSAT 1 01 Mar 13:27:02 13:31:53 86° 287° (WNW) 13:36:42 437.325
AO-7 01 Mar 13:28:48 13:34:33 22° 59° (ENE) 13:40:39 29.400- 29.500
KKS-1 01 Mar 13:35:10 13:38:18 19° 94° (E) 13:41:34 437.445
STARS 01 Mar 13:45:10 13:47:41 15° 92° (E) 13:50:24 437.465
Gurwin Techsat 1B 01 Mar 13:46:32 13:51:50 73° 258° (WSW) 13:57:10 435.225
JAS-2 01 Mar 14:08:25 14:11:05 14° 62° (ENE) 14:14:10 435.910
ITAMSAT 1 01 Mar 14:23:37 14:27:43 22° 266° (W) 14:31:41 435.822/435.867
SWISSCUBE 01 Mar 14:30:49 14:33:58 17° 292° (WNW) 14:36:56 437.505
HORYU 2 01 Mar 14:31:19 14:35:45 88° 75° (ENE) 14:40:12 437.375
BEESAT 01 Mar 14:40:02 14:42:49 15° 293° (WNW) 14:45:22 436.000
YUBILEINY 01 Mar 14:48:55 14:56:00 30° 86° (E) 15:03:24 435.215
KKS-1 01 Mar 15:11:06 15:15:01 30° 288° (WNW) 15:18:51 437.445
AO-7 01 Mar 15:18:17 15:26:39 75° 255° (WSW) 15:35:00 29.400- 29.500
STARS 01 Mar 15:20:18 15:24:21 37° 287° (WNW) 15:28:21 437.465
JAS-2 01 Mar 15:50:13 15:55:30 65° 260° (W) 16:01:21 435.910
ISS 01 Mar 15:54:49 15:58:01 57° 41° (NE) 16:01:13 145.825
Cubesat XI-IV 01 Mar 16:02:22 16:05:19 16° 66° (ENE) 16:08:31 437.490
CUTE-I 01 Mar 16:11:04 16:14:36 19° 67° (ENE) 16:18:21 437.470
MOZHAYETS 4 01 Mar 16:12:50 16:17:22 52° 100° (E) 16:21:54
M-CUBED/EXP-1 PRIME 01 Mar 16:17:04 16:21:23 86° 107° (ESE) 16:26:01 437.505
AUBIESAT-1 01 Mar 16:20:07 16:24:26 83° 107° (ESE) 16:29:03 437.475
BEESAT 3 01 Mar 16:28:07 16:31:56 42° 115° (ESE) 16:35:52 437.485
AIST 2 01 Mar 16:43:57 16:46:52 19° 111° (ESE) 16:49:56 435.215
YUBILEINY 01 Mar 16:44:06 16:52:30 50° 283° (WNW) 17:00:55 435.215
PHONESAT 2.4 01 Mar 16:46:30 16:49:19 22° 145° (SE) 16:52:12 2401.200-2431.200
VERMONT LUNAR 01 Mar 16:50:40 16:54:03 49° 151° (SSE) 16:57:27 437.305
BEESAT 2 01 Mar 16:52:01 16:56:05 70° 117° (ESE) 17:00:13 435.950
AO-7 01 Mar 17:18:49 17:20:54 11° 273° (W) 17:22:06 29.400- 29.500
AIST 1 01 Mar 17:29:18 17:33:02 27° 77° (ENE) 17:36:49
Cubesat XI-IV 01 Mar 17:39:42 17:44:59 59° 259° (W) 17:50:18 437.490
PRISM 01 Mar 17:46:08 17:50:02 36° 98° (E) 17:53:57 437.425
STRAND 1 01 Mar 17:46:51 17:50:45 22° 94° (E) 17:54:46 437.568
CUTE-I 01 Mar 17:49:11 17:54:21 48° 261° (W) 17:59:32 437.470
MOZHAYETS 4 01 Mar 17:51:53 17:54:12 13° 292° (WNW) 17:56:17
HO-68 01 Mar 17:58:51 18:01:27 13° 58° (ENE) 18:04:31 435.675
BEESAT 3 01 Mar 18:07:42 18:10:17 16° 311° (NW) 18:12:45 437.485
CUBESAT XI-V 01 Mar 18:08:24 18:13:06 67° 101° (E) 18:17:46 437.345
AIST 2 01 Mar 18:21:25 18:25:16 33° 305° (NW) 18:29:09 435.215
PHONESAT 2.4 01 Mar 18:23:56 18:27:34 70° 337° (NNW) 18:31:12 2401.200-2431.200
VERMONT LUNAR 01 Mar 18:28:44 18:32:02 39° 345° (NNW) 18:35:20 437.305
BEESAT 2 01 Mar 18:33:44 18:34:48 11° 315° (NW) 18:35:40 435.950
BRITE-PL 01 Mar 18:43:15 18:48:00 29° 71° (ENE) 18:52:45 437.365/2234.400
GOMX 1 01 Mar 18:54:20 18:58:33 24° 71° (ENE) 19:02:47 467.674
O/OREOS (USA 219) 01 Mar 18:56:51 19:01:20 51° 67° (ENE) 19:05:47 437.305
AAUSAT CUBESAT 2 01 Mar 19:01:45 19:02:46 11° 68° (ENE) 19:04:02 437.432
COMPASS 1 01 Mar 19:02:29 19:04:26 13° 69° (ENE) 19:06:34 437.405
AIST 1 01 Mar 19:07:19 19:10:34 20° 271° (W) 19:13:39
PRISM 01 Mar 19:22:40 19:25:17 16° 291° (WNW) 19:27:43 437.425
STRAND 1 01 Mar 19:25:22 19:30:03 36° 289° (WNW) 19:34:40 437.568
SEEDS 01 Mar 19:26:20 19:30:02 32° 73° (ENE) 19:33:48 437.485
CANX-2 01 Mar 19:27:30 19:31:30 45° 75° (ENE) 19:35:33 2200.000
DOVE 4 01 Mar 19:33:41 19:38:31 41° 74° (ENE) 19:43:12 437.250
HO-68 01 Mar 19:41:07 19:48:14 80° 74° (ENE) 19:55:25 435.675
UWE-3 01 Mar 19:45:58 19:47:02 11° 68° (ENE) 19:48:22 435.000/436.395/437.385
CUTE 1.7 + AOD 2 01 Mar 19:46:04 19:50:16 70° 76° (ENE) 19:54:27 437.475
CUBESAT XI-V 01 Mar 19:48:50 19:50:03 11° 294° (WNW) 19:50:57 437.345
CINEMA 3 01 Mar 19:50:17 19:54:29 31° 73° (ENE) 19:58:36 145.822/145.860
PCSat 01 Mar 20:00:49 20:06:08 62° 113° (ESE) 20:11:30 145.827
PHONESAT 2.4 01 Mar 20:03:07 20:06:23 30° 354° (N) 20:09:38 2401.200-2431.200
VERMONT LUNAR 01 Mar 20:07:25 20:10:27 27° 2° (N) 20:13:30 437.305
DELFI C3 01 Mar 20:13:15 20:16:40 28° 73° (ENE) 20:20:10 145.870
CUBEBUG 2 01 Mar 20:18:06 20:22:09 33° 73° (ENE) 20:26:08 437.445
Oscar 11 01 Mar 20:18:42 20:22:46 44° 74° (ENE) 20:26:54 145.826/435.025
BRITE-PL 01 Mar 20:21:16 20:26:24 33° 264° (W) 20:31:20 437.365/2234.400
GOMX 1 01 Mar 20:31:28 20:36:30 36° 263° (W) 20:41:19 467.674
AAUSAT CUBESAT 2 01 Mar 20:34:02 20:38:03 49° 261° (W) 20:42:04 437.432
COMPASS 1 01 Mar 20:35:55 20:39:50 40° 262° (W) 20:43:45 437.405
O/OREOS (USA 219) 01 Mar 20:38:35 20:40:21 12° 260° (W) 20:41:48 437.305
DX 1 01 Mar 20:41:09 20:45:12 39° 73° (ENE) 20:49:20 434.975-435.025
AISAT 01 Mar 20:41:21 20:43:55 16° 68° (ENE) 20:46:42 437.250
VELOX 1 01 Mar 20:50:47 20:53:54 19° 70° (ENE) 20:57:09 145.980
GONETS M04 01 Mar 20:56:25 21:04:27 45° 90° (E) 21:12:37
FUNcube-1 01 Mar 21:01:00 21:05:24 68° 76° (ENE) 21:09:41 145.935
ZACube-1 01 Mar 21:01:51 21:06:16 71° 77° (ENE) 21:10:35 437.345
SEEDS 01 Mar 21:03:18 21:05:59 16° 267° (W) 21:08:30 437.485
ESTCUBE 1 01 Mar 21:04:02 21:05:43 12° 67° (ENE) 21:07:40 437.505/2401.250
CANX-2 01 Mar 21:06:10 21:07:45 11° 269° (W) 21:09:04 2200.000
UKube-1 01 Mar 21:11:41 21:16:03 88° 77° (ENE) 21:20:26 .
DOVE 4 01 Mar 21:12:35 21:16:24 20° 267° (W) 21:19:57 437.250
HUMSAT D 01 Mar 21:13:20 21:17:22 46° 75° (ENE) 21:21:24 437.325/437.525
UWE-3 01 Mar 21:18:46 21:23:12 57° 260° (W) 21:27:32 435.000/436.395/437.385
UNISAT 6 01 Mar 21:19:43 21:21:56 14° 92° (E) 21:24:24 437.425
50 SAT 01 Mar 21:21:05 21:24:46 38° 74° (ENE) 21:28:30 437.505
RS-15 01 Mar 21:25:16 21:33:33 27° 106° (ESE) 21:42:19 29.354- 29.394
CINEMA 3 01 Mar 21:27:51 21:31:42 22° 265° (W) 21:35:19 145.822/145.860
HO-68 01 Mar 21:32:48 21:36:49 15° 270° (W) 21:40:20 435.675
PHONESAT 2.4 01 Mar 21:42:00 21:45:23 35° 11° (NNE) 21:48:45 2401.200-2431.200
TIGRISAT 01 Mar 21:44:08 21:47:46 27° 96° (E) 21:51:30 435.000
VERMONT LUNAR 01 Mar 21:45:22 21:48:48 53° 19° (NNE) 21:52:12 437.305
PCSat 01 Mar 21:46:28 21:50:04 17° 311° (NW) 21:53:28 145.827
DELFI C3 01 Mar 21:49:12 21:51:57 17° 267° (W) 21:54:33 145.870
QB50P1 01 Mar 21:50:56 21:53:41 17° 93° (E) 21:56:34 145.935-145.965
QB50P2 01 Mar 21:54:12 21:57:14 19° 94° (E) 22:00:21 145.880/145.840
CUBEBUG 2 01 Mar 21:55:38 21:58:55 19° 266° (W) 22:01:59 437.445
ANTELSAT 01 Mar 21:56:51 22:00:54 40° 98° (E) 22:05:02 437.575/2403.000
Oscar 11 01 Mar 21:57:23 21:59:16 12° 269° (W) 22:00:53 145.826/435.025
BUGSAT 1 01 Mar 22:06:21 22:09:14 19° 94° (E) 22:12:12 437.445
DUCHIFAT 1 01 Mar 22:09:41 22:13:19 28° 96° (E) 22:16:59 145.980
